Location: West Cummington
(42.4920°N, 72.9680°W)
Time: 22:22:18
(UTC-04:00)

Cosmos 2221 - Visible Passes

Search period start: 01 October 2014 00:00
Search period end: 11 October 2014 00:00
Orbit: 597 x 623 km, 82.5° (Epoch: 01 October)

Date Brightness Start Highest point End Pass type
(mag) Time Alt. Az. Time Alt. Az. Time Alt. Az.
01 Oct 2.5 05:54:26 10° N 05:58:48 86° W 06:03:09 10° S visible
01 Oct 5.8 20:05:03 10° W 20:07:06 13° WNW 20:09:10 10° NW visible
02 Oct 5.7 04:32:46 10° NNE 04:35:21 15° ENE 04:37:55 10° ESE visible
02 Oct 2.7 06:09:08 10° NNW 06:13:19 48° W 06:17:30 10° SSW visible
03 Oct 4.9 04:46:30 10° NNE 04:50:07 25° ENE 04:53:44 10° SE visible
03 Oct 3.8 18:54:04 10° SSW 18:58:10 46° WNW 19:02:18 10° N visible
04 Oct 3.8 05:00:39 10° N 05:04:49 42° ENE 05:08:58 10° SSE visible
04 Oct 5.0 19:09:13 10° SW 19:12:50 27° WNW 19:16:30 10° NNW visible
05 Oct 2.7 05:15:03 10° N 05:19:25 76° E 05:23:47 10° SSE visible
05 Oct 5.6 19:24:55 10° WSW 19:27:36 16° WNW 19:30:18 10° NNW visible
06 Oct 5.7 03:53:57 10° NE 03:55:51 13° ENE 03:57:44 10° E visible
06 Oct 2.5 05:29:38 10° NNW 05:33:57 61° W 05:38:15 10° S visible
07 Oct 5.0 04:07:19 10° NNE 04:10:38 21° ENE 04:13:57 10° ESE visible
07 Oct 3.1 05:44:27 10° NNW 05:48:24 34° W 05:52:21 10° SSW visible
08 Oct 4.1 04:21:20 10° N 04:25:21 34° ENE 04:29:21 10° SE visible
08 Oct 3.8 05:59:34 10° NW 06:02:46 20° W 06:05:59 10° SW visible
09 Oct 3.0 04:35:38 10° N 04:39:58 60° E 04:44:18 10° SSE visible
09 Oct 4.3 06:15:29 10° WNW 06:17:04 12° W 06:18:40 10° WSW visible
09 Oct 5.4 18:44:54 10° WSW 18:48:03 20° WNW 18:51:13 10° NNW visible
10 Oct 3.6 04:50:08 10° N 04:52:35 33° NNW 04:52:35 33° NNW visible
10 Oct 5.8 19:01:14 10° W 19:02:50 12° WNW 19:04:26 10° NW visible
